Location: Shenandoah County Park
(38.9356°N, 78.4524°W)
Time: 08:42:26
(UTC-04:00)

Vanguard 1 - Pass Details

Date: 02 February 2023
Orbit: 648 x 3832 km, 34.3° (Epoch: 01 April)

Event Time Altitude Azimuth Distance (km) Brightness Sun altitude
Exits shadow 03:37:10 22° 134° (SE) 2,403 12.2 -43.3°
Drops below altitude 10° 03:43:31 10° 92° (E) 3,927 13.7 -42.1°
Sets 03:48:44 0° 80° (E) 5,547 14.8 -41.1°
